Weather reports worldwide

Advertisment
Javea, Spain (8370): temperature & dewpoint: 30.03.2020 22:00:00 - 05.04.2020 22:00:00 (CEST)Javea, Spain (8370): wind speed & gusts: 30.03.2020 22:00:00 - 05.04.2020 22:00:00 (CEST)Javea, Spain (8370): wind direction: 30.03.2020 22:00:00 - 05.04.2020 22:00:00 (CEST)Javea, Spain (8370): reduced air pressure: 30.03.2020 22:00:00 - 05.04.2020 22:00:00 (CEST)Javea, Spain (8370): visibility: 30.03.2020 22:00:00 - 05.04.2020 22:00:00 (CEST)Javea, Spain (8370): sunshine duration: 30.03.2020 22:00:00 - 05.04.2020 22:00:00 (CEST)Javea, Spain (8370): precipitation: 30.03.2020 22:00:00 - 05.04.2020 22:00:00 (CEST)
Date & Time tt [°C] td [°C] ff [km/h] ff [kn] fx [km/h] fx [kn] dd ppp [hPa] vv [km] sd [min] rr [mm]
05.04.2020 22:00:00 12,3 8,5 4 2 7 4 WSW 1021,0 20 0 0,0
05.04.2020 21:00:00 14,8 8,3 3 1 11 6 ESE 1020,8 20 21 0,0
05.04.2020 20:00:00 16,4 8,4 6 3 18 10 E 1020,3 20 60 -
05.04.2020 19:00:00 17,6 8,4 8 4 19 10 E 1020,3 20 60 0,0
05.04.2020 18:00:00 17,8 8,4 10 5 22 12 E 1020,3 20 60 0,0
05.04.2020 17:00:00 18,0 8,0 11 6 22 12 E 1021,0 20 60 0,0
05.04.2020 16:00:00 18,7 7,7 8 5 20 11 E 1021,3 20 60 0,0
05.04.2020 15:00:00 18,1 8,1 11 6 21 12 ENE 1021,7 20 60 0,0
05.04.2020 14:00:00 18,1 8,4 9 5 18 10 ENE 1022,0 20 60 -
05.04.2020 13:00:00 18,7 8,4 7 4 17 9 ENE 1022,4 20 60 0,0
05.04.2020 12:00:00 17,9 7,8 10 5 19 10 NE 1022,3 20 60 0,0
05.04.2020 11:00:00 17,5 8,9 7 4 15 8 ENE 1022,1 20 60 0,0
05.04.2020 10:00:00 14,1 9,2 8 4 13 7 WSW 1021,9 20 50 0,0
05.04.2020 09:00:00 9,5 7,6 8 4 11 6 WSW 1021,4 20 0 0,0
05.04.2020 08:00:00 10,1 8,3 7 4 10 6 WSW 1020,8 20 0 -
05.04.2020 07:00:00 9,6 8,3 8 4 10 5 WSW 1020,5 20 0 0,0
05.04.2020 06:00:00 9,8 8,5 8 5 13 7 WSW 1020,4 20 0 0,0
05.04.2020 05:00:00 9,4 8,4 9 5 11 6 WSW 1020,4 20 0 0,0
05.04.2020 04:00:00 9,3 8,1 7 4 10 5 WSW 1020,8 17 0 0,0
05.04.2020 03:00:00 9,5 8,3 6 4 9 5 WSW 1021,1 16 0 0,0
05.04.2020 02:00:00 9,5 8,1 5 3 6 4 WSW 1021,1 13 0 -
05.04.2020 01:00:00 9,6 7,4 3 2 6 3 WSW 1021,2 13 0 0,0
05.04.2020 00:00:00 11,2 8,4 3 2 10 5 WNW 1021,4 20 0 0,0
04.04.2020 23:00:00 11,9 9,0 6 3 9 5 W 1021,3 20 0 0,0
04.04.2020 22:00:00 12,1 8,4 4 2 10 5 W 1021,1 20 0 0,0
04.04.2020 21:00:00 14,0 8,8 5 3 16 9 S 1020,7 20 5 0,0
04.04.2020 20:00:00 16,5 8,9 8 5 20 11 S 1020,3 20 49 -
04.04.2020 19:00:00 16,1 9,0 8 5 22 12 S 1020,0 20 21 0,0
04.04.2020 18:00:00 16,8 8,3 11 6 26 14 S 1019,7 20 27 0,0
04.04.2020 17:00:00 19,9 9,2 10 5 26 14 S 1019,9 20 54 0,0
04.04.2020 16:00:00 20,0 9,6 14 8 27 15 S 1020,4 20 55 0,0
04.04.2020 15:00:00 19,6 8,9 13 7 24 13 S 1020,6 20 59 0,0
04.04.2020 14:00:00 19,6 8,9 11 6 24 13 SE 1020,8 20 60 -
04.04.2020 13:00:00 19,4 9,0 13 7 23 13 SSE 1021,0 20 60 0,0
04.04.2020 12:00:00 18,8 9,3 7 4 16 9 SSE 1020,9 20 53 0,0
04.04.2020 11:00:00 17,0 10,2 3 2 9 5 N 1020,8 20 60 0,0
04.04.2020 10:00:00 12,5 8,3 4 2 10 5 SW 1020,4 20 52 0,0
04.04.2020 09:00:00 8,9 7,3 8 4 11 6 WSW 1020,0 20 15 0,0
04.04.2020 08:00:00 7,6 6,1 9 5 12 6 WSW 1019,8 20 0 -
04.04.2020 07:00:00 7,6 6,2 9 5 12 6 WSW 1019,5 20 0 0,0
04.04.2020 06:00:00 8,1 6,7 5 3 11 6 W 1019,3 20 0 0,0
04.04.2020 05:00:00 8,2 6,1 5 3 9 5 WSW 1019,2 19 0 0,0
04.04.2020 04:00:00 10,1 7,1 1 1 11 6 SSW 1019,2 20 0 0,0
04.04.2020 03:00:00 11,9 8,1 7 4 16 9 W 1019,2 20 0 0,0
04.04.2020 02:00:00 11,9 8,5 8 4 21 11 SW 1019,5 20 0 -
04.04.2020 01:00:00 11,7 8,8 5 3 15 8 W 1019,6 20 0 0,0
04.04.2020 00:00:00 10,6 8,4 5 3 10 5 WSW 1019,5 20 0 0,0
03.04.2020 23:00:00 10,4 7,3 3 1 8 4 WSW 1019,3 20 0 0,0
03.04.2020 22:00:00 11,6 6,7 3 2 8 4 W 1018,5 20 0 0,0
03.04.2020 21:00:00 13,5 5,9 5 3 12 7 SSW 1018,0 20 9 0,0
03.04.2020 20:00:00 16,5 5,8 8 5 17 9 SSE 1017,7 20 60 -
03.04.2020 19:00:00 17,4 4,6 8 5 18 10 E 1017,6 20 60 0,0
03.04.2020 18:00:00 17,9 7,6 10 6 19 11 E 1017,6 20 60 0,0
03.04.2020 17:00:00 16,9 8,5 11 6 20 11 ENE 1017,5 20 60 0,0
03.04.2020 16:00:00 19,0 6,4 9 5 17 9 ENE 1017,6 20 60 0,0
03.04.2020 15:00:00 19,5 4,5 9 5 22 12 N 1017,8 20 60 0,0
03.04.2020 14:00:00 18,8 5,9 14 8 24 13 N 1018,0 20 60 -
03.04.2020 13:00:00 18,6 8,3 11 6 27 14 N 1018,1 20 60 0,0
03.04.2020 12:00:00 17,6 7,3 13 7 29 15 N 1017,9 20 60 0,0
03.04.2020 11:00:00 16,5 6,1 20 11 32 18 NW 1017,2 20 60 0,0
03.04.2020 10:00:00 14,4 8,4 19 11 31 17 NNW 1016,5 20 52 0,0
03.04.2020 09:00:00 12,5 8,4 11 6 24 13 NW 1016,1 20 15 0,0
03.04.2020 08:00:00 11,4 8,1 9 5 24 13 NW 1015,5 20 0 -
03.04.2020 07:00:00 11,8 8,7 12 6 27 14 NW 1015,0 20 0 0,0
03.04.2020 06:00:00 11,9 8,8 14 7 30 16 NW 1014,7 20 0 0,0
03.04.2020 05:00:00 11,8 8,8 14 8 27 14 NW 1014,3 20 0 0,0
03.04.2020 04:00:00 11,7 8,1 13 7 23 12 NNW 1014,7 20 0 0,0
03.04.2020 03:00:00 11,9 9,0 11 6 30 16 NNW 1014,9 20 0 0,0
03.04.2020 02:00:00 12,2 8,8 17 9 32 17 NNW 1015,2 20 0 -
03.04.2020 01:00:00 12,1 9,7 18 10 36 19 N 1014,9 20 0 0,0
03.04.2020 00:00:00 12,8 9,7 16 8 31 17 N 1014,8 19 0 0,0
02.04.2020 23:00:00 13,0 9,7 15 8 31 17 N 1014,5 17 0 0,0
02.04.2020 22:00:00 12,9 9,6 18 10 29 16 N 1014,0 20 0 0,0
02.04.2020 21:00:00 12,8 9,7 11 6 32 17 N 1013,4 20 0 0,0
02.04.2020 20:00:00 13,1 9,6 18 10 33 18 N 1013,0 20 0 -
02.04.2020 19:00:00 13,9 9,3 18 10 34 18 N 1012,4 20 32 0,0
02.04.2020 18:00:00 14,2 9,2 14 8 32 17 N 1012,1 20 31 0,0
02.04.2020 17:00:00 14,8 9,6 18 10 30 16 N 1012,2 20 54 0,0
02.04.2020 16:00:00 15,5 9,4 16 9 31 17 NNE 1012,2 20 20 0,0
02.04.2020 15:00:00 15,0 9,8 13 7 26 14 N 1012,6 20 0 0,0
02.04.2020 14:00:00 14,9 9,9 16 8 26 14 N 1012,7 20 0 -
02.04.2020 13:00:00 15,0 10,0 14 8 29 15 N 1012,9 20 5 0,0
02.04.2020 12:00:00 13,3 9,6 11 6 28 15 NNE 1012,9 20 0 0,0
02.04.2020 11:00:00 13,3 9,6 13 7 25 14 N 1012,5 20 0 0,0
02.04.2020 10:00:00 12,6 9,8 11 6 29 15 N 1012,1 20 0 0,0
02.04.2020 09:00:00 12,4 9,9 12 6 30 16 N 1011,4 20 0 0,0
02.04.2020 08:00:00 12,4 10,3 16 9 30 16 N 1011,1 9 0 -
02.04.2020 07:00:00 12,6 10,2 16 8 32 17 N 1011,1 20 0 0,0
02.04.2020 06:00:00 12,5 10,2 19 10 31 17 N 1010,9 20 0 0,0
02.04.2020 05:00:00 12,4 10,4 14 8 28 15 NNW 1011,5 20 0 0,0
02.04.2020 04:00:00 12,3 10,8 14 7 31 17 N 1012,1 20 0 0,2
02.04.2020 03:00:00 12,5 10,9 18 10 35 19 N 1012,5 20 0 0,2
02.04.2020 02:00:00 12,5 11,1 20 11 33 18 N 1011,9 20 0 -
02.04.2020 01:00:00 12,6 10,5 11 6 24 13 NNW 1013,1 14 0 0,8
02.04.2020 00:00:00 12,6 10,3 18 10 36 19 N 1013,0 20 0 0,0
01.04.2020 23:00:00 12,4 10,4 18 10 31 17 N 1012,6 10 0 0,2
01.04.2020 22:00:00 14,1 9,9 8 5 25 13 NNW 1013,2 20 0 0,0
01.04.2020 21:00:00 14,5 10,8 14 7 23 12 NNE 1011,9 20 0 0,0
01.04.2020 20:00:00 15,4 13,1 10 6 18 10 NE 1011,4 20 10 -
01.04.2020 19:00:00 17,0 12,7 5 3 10 5 ESE 1010,7 20 15 0,0
01.04.2020 18:00:00 16,1 12,6 5 3 23 12 SSE 1010,9 18 15 0,0
01.04.2020 17:00:00 17,1 13,7 13 7 22 12 ENE 1010,8 20 42 0,4
01.04.2020 16:00:00 17,0 12,3 11 6 21 12 E 1010,9 20 41 0,0
01.04.2020 15:00:00 16,8 13,2 6 3 15 8 ENE 1011,6 20 8 0,4
01.04.2020 14:00:00 17,2 10,5 10 6 21 12 ENE 1011,9 11 50 -
01.04.2020 13:00:00 18,5 10,9 11 6 21 11 ENE 1012,1 20 60 0,0
01.04.2020 12:00:00 19,5 9,4 3 2 13 7 SSE 1012,2 20 60 0,0
01.04.2020 11:00:00 15,3 10,5 6 4 13 7 WSW 1012,4 20 16 0,0
01.04.2020 10:00:00 12,3 10,0 6 3 14 7 W 1012,1 20 0 0,0
01.04.2020 09:00:00 11,6 10,0 6 3 10 5 WSW 1011,9 20 0 0,0
01.04.2020 08:00:00 11,6 9,6 4 2 14 8 SW 1011,4 20 0 -
01.04.2020 07:00:00 10,9 9,2 3 2 7 4 SW 1011,4 20 0 0,0
01.04.2020 06:00:00 11,1 8,8 4 2 9 5 SW 1011,1 20 0 0,0
01.04.2020 05:00:00 11,9 9,0 6 4 16 8 W 1011,3 20 0 0,0
01.04.2020 04:00:00 12,5 9,2 7 4 14 7 W 1011,6 20 0 0,0
01.04.2020 03:00:00 13,1 9,3 8 5 23 12 WSW 1011,8 20 0 0,0
01.04.2020 02:00:00 13,1 9,7 5 3 35 19 W 1012,1 20 0 -
01.04.2020 01:00:00 13,1 9,9 18 10 40 21 WNW 1012,1 20 0 0,0
01.04.2020 00:00:00 13,0 10,4 14 8 32 17 W 1012,0 20 0 0,0
31.03.2020 23:00:00 13,1 10,4 13 7 34 19 WNW 1011,8 20 0 0,0
31.03.2020 22:00:00 13,0 10,2 17 9 36 19 WNW 1011,3 20 0 0,0
31.03.2020 21:00:00 13,4 10,4 21 11 37 20 WNW 1010,7 20 0 0,0
31.03.2020 20:00:00 14,2 10,6 18 10 37 20 WNW 1010,1 20 3 -
31.03.2020 19:00:00 14,7 10,8 22 12 41 22 NW 1009,5 20 43 0,0
31.03.2020 18:00:00 15,0 10,8 23 12 42 23 NW 1009,3 20 60 0,0
31.03.2020 17:00:00 15,2 10,4 24 13 44 24 NW 1009,1 20 60 0,0
31.03.2020 16:00:00 16,9 11,2 19 10 36 19 NW 1009,2 20 53 0,0
31.03.2020 15:00:00 13,9 9,9 18 10 35 19 NW 1009,6 20 2 0,0
31.03.2020 14:00:00 15,0 10,4 18 10 39 21 WNW 1009,3 20 36 -
31.03.2020 13:00:00 11,9 9,4 23 12 43 23 NNW 1009,6 20 1 0,0
31.03.2020 12:00:00 11,9 10,3 10 5 36 19 WNW 1010,1 20 0 0,6
31.03.2020 11:00:00 10,8 9,0 10 6 41 22 W 1010,3 11 0 0,4
31.03.2020 10:00:00 10,4 8,4 9 5 36 19 WNW 1010,1 20 0 0,0
31.03.2020 09:00:00 9,9 8,0 26 14 50 27 NW 1009,5 20 0 0,0
31.03.2020 08:00:00 9,5 8,0 21 11 41 22 WNW 1009,9 20 0 -
31.03.2020 07:00:00 9,3 7,6 22 12 43 23 WNW 1009,5 20 0 0,0
31.03.2020 06:00:00 9,5 7,8 20 11 38 21 W 1010,3 20 0 0,0
31.03.2020 05:00:00 9,7 8,5 20 11 37 20 W 1010,8 20 0 0,0
31.03.2020 04:00:00 9,9 8,8 22 12 40 22 WSW 1011,2 20 0 0,0
31.03.2020 03:00:00 10,2 9,3 18 10 36 19 W 1011,8 20 0 2,2
31.03.2020 02:00:00 11,0 10,0 11 6 29 15 W 1012,2 7 0 -
31.03.2020 01:00:00 11,2 10,0 14 8 29 16 NNW 1013,1 8 0 2,2
31.03.2020 00:00:00 11,0 9,9 16 9 29 16 N 1013,6 3,4 0 1,8
30.03.2020 23:00:00 10,8 9,4 17 9 33 18 N 1013,7 3,2 0 1,2
30.03.2020 22:00:00 11,3 8,4 14 8 32 17 N 1014,0 20 0 0,0

tt = temperature
td = dewpoint
ff = wind speed
fx = gusts
dd = wind direction
ppp = reduced air pressure
vv = visibility
sd = sunshine duration
rr = precipitation

Next stations